Torna al catalogo

COSMOS 1858

AttivoNavigazioneLEO
NORAD 18119·PAYLOAD·🇷🇺 Russia

Lanciato Jun 16, 1987 da Plesetsk Cosmodrome

Loading…

Prossimi Passaggi (prossime 24 ore)

TLE

AggiornatoSource: Space-Track

Epoca: Sep 14, 2026, 14:58 UTC

1 18119U 87051G   26257.62416927  .00000004  00000-0  12435-3 0  9992
2 18119  74.0068 328.3956 0049096 320.4794 208.4192 12.56042275799511

Traccia COSMOS 1858 in tempo reale con AllMySat

Download on the App Store